Location: Forst
(46.9333°N, 15.4333°E)
Time: 07:23:21
(UTC+00:00)

Lacrosse 5 rocket - Pass Details

Date: 22 April 2021
Orbit: 460 x 634 km, 57.0° (Epoch: 12 May)

Event Time Altitude Azimuth Distance (km) Brightness Sun altitude
Rises 19:02:54 0° 295° (WNW) 2,697 7.0 -11.0°
Reaches altitude 10° 19:05:31 10° 312° (NW) 1,840 5.5 -11.4°
Maximum altitude 19:08:44 21° 3° (N) 1,318 3.6 -11.9°
Drops below altitude 10° 19:12:04 10° 52° (NE) 1,922 3.9 -12.3°
Enters shadow 19:14:20 - 67° (ENE) 2,665 4.5 -12.6°
